Change the Weather History Date:

Friday, June 28, 2013

  Actual Average Record
Temperature  
Mean Temperature 68 °F -  
Max Temperature 75 °F 78 °F 96 °F (1961)
Min Temperature 62 °F 59 °F 48 °F (1956)
Cooling Degree Days 4    
Growing Degree Days 18 (Base 50)    
Moisture  
Dew Point 61 °F    
Average Humidity 87    
Maximum Humidity 100    
Minimum Humidity 64    
Precipitation  
Precipitation 0.44 in - - ()
Sea Level Pressure  
Sea Level Pressure 29.68 in    
Wind  
Wind Speed 10 mph (NW)    
Max Wind Speed 15 mph    
Max Gust Speed 23 mph    
Visibility 10 miles    
Events Rain    
Averages and records for this station are not official NWS values.
T = Trace of Precipitation, MM = Missing Value Source: NWS Daily Summary

Daily Weather History Graph

Daily Weather History Graph

Search for Another Location

Airport or City:

Trip Planner

Search our weather history database for the weather conditions in past years. The results will help you decide how hot, cold, wet, or windy it might be!

Date:

Astronomy

Jun. 28, 2013 Rise Set
Actual Time 5:12 AM CDT 8:41 PM CDT
Civil Twilight 4:36 AM CDT 9:18 PM CDT
Nautical Twilight 3:48 AM CDT 10:06 PM CDT
Astronomical Twilight 2:46 AM CDT 11:07 PM CDT
Moon 11:55 PM CDT (6/28) 11:34 AM CDT (6/28)
Length of Visible Light 16h 42m
Length of Day
15h 29m
Waning Gibbous, 66% of the Moon is Illuminated
Jun 28
Waning Gibbous
Jun 29
Last Quarter
Jul 8
New
Jul 15
First Quarter
Jul 22
Full

Hourly Weather History & Observations

Time (CDT) Temp. Dew Point Humidity Pressure Visibility Wind Dir Wind Speed Gust Speed Precip Events Conditions
12:15 AM 62.6 °F 60.8 °F 94% 29.71 in 10.0 mi West 10.4 mph - N/A   Clear
12:35 AM 62.6 °F 60.8 °F 94% 29.72 in 10.0 mi West 10.4 mph - N/A   Mostly Cloudy
12:55 AM 62.6 °F 60.8 °F 94% 29.71 in 10.0 mi West 10.4 mph - N/A   Scattered Clouds
1:35 AM 62.6 °F 60.8 °F 94% 29.71 in 10.0 mi West 9.2 mph - N/A   Clear
1:55 AM 62.6 °F 60.8 °F 94% 29.70 in 10.0 mi West 10.4 mph - N/A   Clear
2:15 AM 62.6 °F 60.8 °F 94% 29.70 in 10.0 mi West 10.4 mph - N/A   Clear
2:35 AM 62.6 °F 60.8 °F 94% 29.70 in 10.0 mi West 12.7 mph - N/A   Clear
2:55 AM 62.6 °F 60.8 °F 94% 29.69 in 10.0 mi West 9.2 mph - N/A   Clear
3:15 AM 62.6 °F 60.8 °F 94% 29.69 in 10.0 mi West 9.2 mph - N/A   Clear
3:35 AM 62.6 °F 60.8 °F 94% 29.69 in 10.0 mi West 9.2 mph - N/A   Clear
3:55 AM 62.6 °F 60.8 °F 94% 29.68 in 10.0 mi West 8.1 mph - N/A   Clear
4:15 AM 62.6 °F 60.8 °F 94% 29.68 in 10.0 mi West 9.2 mph - N/A   Clear
4:35 AM 62.6 °F 60.8 °F 94% 29.68 in 10.0 mi West 9.2 mph - N/A   Mostly Cloudy
4:55 AM 62.6 °F 60.8 °F 94% 29.68 in 10.0 mi West 9.2 mph - N/A   Mostly Cloudy
5:15 AM 62.6 °F 60.8 °F 94% 29.68 in 10.0 mi West 10.4 mph - N/A   Clear
5:20 AM 62.6 °F 60.8 °F 94% 29.68 in 10.0 mi West 10.4 mph - N/A   Mostly Cloudy
5:45 AM 62.6 °F 60.8 °F 94% 29.68 in 10.0 mi West 10.4 mph - N/A   Mostly Cloudy
6:45 AM 62.6 °F 60.8 °F 94% 29.68 in 10.0 mi West 10.4 mph - N/A   Mostly Cloudy
7:45 AM 66.2 °F 60.8 °F 83% 29.67 in 10.0 mi NW 8.1 mph - N/A   Scattered Clouds
8:45 AM 69.8 °F 60.8 °F 73% 29.66 in 10.0 mi WNW 10.4 mph - N/A   Scattered Clouds
9:53 AM 71.6 °F 60.8 °F 69% 29.66 in 10.0 mi NW 10.4 mph - N/A   Mostly Cloudy
10:18 AM 71.6 °F 59.0 °F 64% 29.65 in 10.0 mi NW 8.1 mph - N/A   Mostly Cloudy
10:45 AM 71.6 °F 60.8 °F 69% 29.65 in 10.0 mi NNW 9.2 mph - N/A   Mostly Cloudy
11:45 AM 71.6 °F 60.8 °F 69% 29.66 in 10.0 mi WNW 9.2 mph - N/A   Mostly Cloudy
2:45 PM 75.2 °F 62.6 °F 65% 29.63 in 10.0 mi NNW 10.4 mph - N/A   Mostly Cloudy
3:45 PM 73.4 °F 60.8 °F 65% 29.62 in 10.0 mi NNW 4.6 mph - N/A   Mostly Cloudy
4:45 PM 71.6 °F 60.8 °F 69% 29.62 in 10.0 mi NW 6.9 mph - N/A   Mostly Cloudy
5:45 PM 69.8 °F 62.6 °F 78% 29.65 in 10.0 mi NNE 9.2 mph - N/A   Mostly Cloudy
6:45 PM 69.8 °F 60.8 °F 73% 29.65 in 10.0 mi NNE 8.1 mph - N/A   Mostly Cloudy
7:45 PM 69.8 °F 62.6 °F 78% 29.66 in 10.0 mi NNE 8.1 mph - N/A   Mostly Cloudy
8:45 PM 68.0 °F 62.6 °F 83% 29.67 in 10.0 mi NNE 4.6 mph - N/A   Mostly Cloudy
9:45 PM 66.2 °F 62.6 °F 88% 29.68 in 10.0 mi NW 3.5 mph - N/A   Mostly Cloudy
10:45 PM 64.4 °F 62.6 °F 94% 29.68 in 4.0 mi North 15.0 mph 23.0 mph N/A Rain Light Rain
10:55 PM 62.6 °F 62.6 °F 100% 29.68 in 7.0 mi NNE 10.4 mph - 0.43 in Rain Light Rain
11:15 PM 62.6 °F 62.6 °F 100% 29.68 in 10.0 mi North 6.9 mph - 0.01 in Rain Light Rain
11:35 PM 62.6 °F 62.6 °F 100% 29.68 in 10.0 mi North 8.1 mph - 0.01 in Rain Rain
11:55 PM 62.6 °F 62.6 °F 100% 29.67 in 10.0 mi North 6.9 mph - 0.01 in Rain Rain